When you browse on this site, cookies collect data to enhance your experience and personalize the content and advertising you see.
Visit our Privacy Policy to learn more. By continuing to use the site, you agree to this use of cookies and data.
  • In Italy
  • List of Countries
  • For 7 days
  • Water Temperature
  • Satellite Maps
  • Weather Map
  • Weather Widgets
  • user-avatar
    Login

    Hourly Weather Rome

    Today, 22 January, Tuesday

    Time Temperature Precipitation Wind Pressure Humidity
    00:00 +8°C° 0.3 mm 3 mps 753 mmHg 79%
    01:00 +8°C° 0 mm 3 mps 753 mmHg 79%
    02:00 +8°C° 1.6 mm 3 mps 752 mmHg 81%
    03:00 +7°C° 1.6 mm 2 mps 752 mmHg 83%
    04:00 +7°C° 1.6 mm 2 mps 751 mmHg 85%
    05:00 +7°C° 1.8 mm 2 mps 751 mmHg 85%
    06:00 +7°C° 1.8 mm 2 mps 751 mmHg 85%
    07:00 +5°C° 1.8 mm 3 mps 750 mmHg 85%
    08:00 +6°C° 1.6 mm 2 mps 750 mmHg 85%
    09:00 +7°C° 1.6 mm 2 mps 750 mmHg 85%
    10:00 +8°C° 1.6 mm 1 mps 750 mmHg 85%
    11:00 +8°C° 0.6 mm 1 mps 750 mmHg 82%
    12:00 +9°C° 0.6 mm 1 mps 750 mmHg 79%
    13:00 +9°C° 0.6 mm 1 mps 749 mmHg 77%
    14:00 +9°C° 0.1 mm 1 mps 749 mmHg 77%
    15:00 +8°C° 0.1 mm 2 mps 749 mmHg 78%
    16:00 +8°C° 0.1 mm 2 mps 749 mmHg 79%
    17:00 +8°C° 0.1 mm 2 mps 749 mmHg 80%
    18:00 +8°C° 0.1 mm 3 mps 749 mmHg 81%
    19:00 +7°C° 0.1 mm 3 mps 749 mmHg 81%
    20:00 +7°C° 0 mm 2 mps 749 mmHg 81%
    21:00 +6°C° 0 mm 2 mps 749 mmHg 81%
    22:00 +6°C° 0 mm 2 mps 749 mmHg 81%
    23:00 +7°C° 0 mm 1 mps 749 mmHg 82%

    Tomorrow, 23 January, Wednesday

    Time Temperature Precipitation Wind Pressure Humidity
    00:00 +6°C° 0 mm 1 mps 749 mmHg 82%
    01:00 +6°C° 0 mm 1 mps 749 mmHg 82%
    02:00 +6°C° 0 mm 1 mps 748 mmHg 83%
    03:00 +5°C° 0 mm 1 mps 748 mmHg 83%
    04:00 +5°C° 0 mm 1 mps 748 mmHg 83%
    05:00 +5°C° 0 mm 1 mps 748 mmHg 82%
    06:00 +4°C° 0 mm 2 mps 747 mmHg 82%
    07:00 +4°C° 0 mm 2 mps 747 mmHg 81%
    08:00 +5°C° 0 mm 2 mps 747 mmHg 77%
    09:00 +5°C° 0 mm 3 mps 747 mmHg 73%
    10:00 +7°C° 0 mm 3 mps 747 mmHg 69%
    11:00 +8°C° 0.2 mm 3 mps 746 mmHg 67%
    12:00 +9°C° 0.2 mm 3 mps 745 mmHg 66%
    13:00 +9°C° 0.2 mm 3 mps 744 mmHg 64%
    14:00 +9°C° 0.2 mm 3 mps 744 mmHg 66%
    15:00 +9°C° 0.2 mm 3 mps 743 mmHg 67%
    16:00 +9°C° 0.2 mm 3 mps 743 mmHg 69%
    17:00 +8°C° 0.3 mm 3 mps 742 mmHg 72%
    18:00 +8°C° 0.3 mm 3 mps 742 mmHg 74%
    19:00 +7°C° 0.3 mm 3 mps 742 mmHg 76%
    20:00 +7°C° 0.1 mm 3 mps 742 mmHg 77%
    21:00 +7°C° 0.1 mm 3 mps 742 mmHg 78%
    22:00 +5°C° 0.1 mm 3 mps 742 mmHg 79%
    23:00 +5°C° 0 mm 3 mps 741 mmHg 79%

    Day after tomorrow, 24 January, Thursday

    Time Temperature Precipitation Wind Pressure Humidity
    00:00 +5°C° 0 mm 3 mps 741 mmHg 79%
    01:00 +5°C° 0 mm 2 mps 740 mmHg 79%
    02:00 +4°C° 0 mm 3 mps 740 mmHg 78%
    03:00 +4°C° 0 mm 3 mps 739 mmHg 77%
    04:00 +4°C° 0 mm 3 mps 739 mmHg 75%
    05:00 +4°C° 1.3 mm 3 mps 739 mmHg 77%
    06:00 +4°C° 1.3 mm 3 mps 739 mmHg 78%
    07:00 +5°C° 1.3 mm 3 mps 738 mmHg 79%
    08:00 +7°C° 0 mm 3 mps 739 mmHg 76%
    09:00 +7°C° 0 mm 3 mps 739 mmHg 73%
    10:00 +8°C° 0 mm 3 mps 740 mmHg 69%
    11:00 +9°C° 0 mm 3 mps 740 mmHg 65%
    12:00 +10°C° 0 mm 3 mps 740 mmHg 60%
    13:00 +11°C° 0 mm 4 mps 741 mmHg 55%
    14:00 +11°C° 0 mm 4 mps 741 mmHg 55%
    15:00 +11°C° 0 mm 4 mps 741 mmHg 54%
    16:00 +11°C° 0 mm 4 mps 741 mmHg 53%
    17:00 +10°C° 0 mm 4 mps 742 mmHg 56%
    18:00 +8°C° 0 mm 4 mps 742 mmHg 58%
    19:00 +8°C° 0 mm 5 mps 743 mmHg 60%
    20:00 +7°C° 0 mm 5 mps 743 mmHg 59%
    21:00 +7°C° 0 mm 6 mps 744 mmHg 58%
    22:00 +7°C° 0 mm 6 mps 744 mmHg 57%
    23:00 +5°C° 0 mm 6 mps 744 mmHg 59%

    25 January, Friday

    Time Temperature Precipitation Wind Pressure Humidity
    00:00 +5°C° 0 mm 6 mps 744 mmHg 60%
    01:00 +5°C° 0 mm 6 mps 745 mmHg 61%
    02:00 +5°C° 0 mm 6 mps 745 mmHg 61%
    03:00 +4°C° 0 mm 6 mps 745 mmHg 61%
    04:00 +4°C° 0 mm 6 mps 745 mmHg 62%
    05:00 +4°C° 0 mm 6 mps 745 mmHg 63%
    06:00 +4°C° 0 mm 6 mps 746 mmHg 63%
    07:00 +4°C° 0 mm 6 mps 746 mmHg 64%
    08:00 +4°C° 0 mm 6 mps 746 mmHg 62%
    09:00 +5°C° 0 mm 6 mps 747 mmHg 59%
    10:00 +7°C° 0 mm 6 mps 747 mmHg 57%
    11:00 +8°C° 0 mm 6 mps 747 mmHg 54%
    12:00 +8°C° 0 mm 5 mps 747 mmHg 51%
    13:00 +9°C° 0 mm 5 mps 748 mmHg 48%
    14:00 +9°C° 0 mm 5 mps 748 mmHg 49%
    15:00 +8°C° 0 mm 6 mps 748 mmHg 50%
    16:00 +8°C° 0 mm 6 mps 748 mmHg 51%
    17:00 +7°C° 0 mm 6 mps 748 mmHg 53%
    18:00 +5°C° 0 mm 6 mps 748 mmHg 55%
    19:00 +4°C° 0 mm 6 mps 749 mmHg 57%
    20:00 +3°C° 0 mm 6 mps 749 mmHg 57%
    21:00 +3°C° 0 mm 5 mps 749 mmHg 57%
    22:00 +2°C° 0 mm 5 mps 750 mmHg 57%
    23:00 +2°C° 0 mm 5 mps 750 mmHg 58%

    26 January, Saturday

    Time Temperature Precipitation Wind Pressure Humidity
    00:00 +2°C° 0 mm 5 mps 750 mmHg 59%
    01:00 +3°C° 0 mm 4 mps 750 mmHg 60%
    02:00 +1°C° 0 mm 4 mps 750 mmHg 60%
    03:00 +1°C° 0 mm 4 mps 750 mmHg 61%
    04:00 +1°C° 0 mm 4 mps 750 mmHg 61%
    05:00 +1°C° 0 mm 4 mps 750 mmHg 61%
    06:00 +1°C° 0 mm 4 mps 751 mmHg 60%
    07:00 +1°C° 0 mm 4 mps 751 mmHg 60%
    08:00 +3°C° 0 mm 3 mps 751 mmHg 57%
    09:00 +4°C° 0 mm 3 mps 752 mmHg 54%
    10:00 +5°C° 0 mm 3 mps 752 mmHg 51%
    11:00 +7°C° 0 mm 2 mps 752 mmHg 47%
    12:00 +8°C° 0 mm 2 mps 751 mmHg 44%
    13:00 +10°C° 0 mm 1 mps 751 mmHg 41%
    14:00 +9°C° 0 mm 2 mps 751 mmHg 43%
    15:00 +9°C° 0 mm 2 mps 751 mmHg 44%
    16:00 +9°C° 0 mm 2 mps 751 mmHg 46%
    17:00 +8°C° 0 mm 2 mps 751 mmHg 51%
    18:00 +7°C° 0 mm 2 mps 751 mmHg 56%
    19:00 +5°C° 0 mm 2 mps 751 mmHg 61%
    20:00 +5°C° 0 mm 2 mps 751 mmHg 63%
    21:00 +5°C° 0 mm 1 mps 751 mmHg 65%
    22:00 +5°C° 0 mm 1 mps 751 mmHg 67%
    23:00 +5°C° 0 mm 1 mps 751 mmHg 68%

    27 January, Sunday

    Time Temperature Precipitation Wind Pressure Humidity
    00:00 +4°C° 0 mm 1 mps 751 mmHg 69%
    01:00 +4°C° 0 mm 1 mps 750 mmHg 70%
    02:00 +4°C° 0 mm 1 mps 750 mmHg 69%
    03:00 +4°C° 0 mm 1 mps 750 mmHg 69%
    04:00 +3°C° 0 mm 2 mps 749 mmHg 69%
    05:00 +4°C° 0 mm 2 mps 749 mmHg 66%
    06:00 +4°C° 0 mm 2 mps 749 mmHg 64%
    07:00 +4°C° 0 mm 2 mps 748 mmHg 61%
    08:00 +4°C° 0.2 mm 3 mps 748 mmHg 60%
    09:00 +5°C° 0.2 mm 3 mps 748 mmHg 59%
    10:00 +6°C° 0.2 mm 4 mps 748 mmHg 58%
    11:00 +6°C° 0.7 mm 4 mps 748 mmHg 63%
    12:00 +6°C° 0.7 mm 4 mps 747 mmHg 68%
    13:00 +7°C° 0.7 mm 5 mps 747 mmHg 73%
    14:00 +7°C° 0.9 mm 5 mps 747 mmHg 74%
    15:00 +7°C° 0.9 mm 5 mps 746 mmHg 75%
    16:00 +7°C° 0.9 mm 5 mps 746 mmHg 76%
    17:00 +7°C° 1.6 mm 4 mps 746 mmHg 79%
    18:00 +7°C° 1.6 mm 3 mps 746 mmHg 82%
    19:00 +7°C° 1.6 mm 3 mps 746 mmHg 85%
    20:00 +7°C° 3.7 mm 3 mps 746 mmHg 87%
    21:00 +7°C° 3.7 mm 2 mps 746 mmHg 89%
    22:00 +7°C° 3.7 mm 2 mps 746 mmHg 91%
    23:00 +7°C° 0.1 mm 2 mps 746 mmHg 89%
    Show more